OBJECT H, 57173

Orbit data source: Space-Track

You're viewing an Uncataloged Satellite

Recently launched and/or uncataloged satellites may have evolving metadata. Metadata may include but not limited to: Owner, Maufacturer, Bus, Motor, and Mission.

OBJECT H, 57173 is a satellite in SSO that was launched on Tue, 27 Jun 2023 UTC via a SOYUZ-2-1B launch vehicle from the Vostochny Cosmodrome (VOSTO). Unknown objects in Earth's orbit typically refer to objects detected orbiting the Earth but have not yet been identified or cataloged. These objects could be anything from previously untracked satellites, spent rocket stages, debris from satellite collisions, or even natural meteoroids temporarily captured by Earth's gravity.

Loading next visibility...
Identifier
57173, 2023-091H
Orbit
SSO
Country
Flag of TBDTBD
Related business
None
Manufacturer
Unknown
Mission
Operational Commercial Communications
Bus & Motor
Unknown
Mass
Unknown
Launch date (UTC)
2023-06-27 (3 years ago)
Launch vehicle
SOYUZ-2-1B
Launch site
Vostochny Cosmodrome (VOSTO)
Object type
Unknown
Shape & HBR
Box, 0.1 m
Radar Cross Section
0.035 m², Medium (>0.1 m² and < 1m²)

Expand to show TLE details & history
Last TLE update: 8 hours ago

TLE from 8 hours ago
0 OBJECT H
1 57173U 23091H   26162.94600109  .00010524  00000-0  38114-3 0  9996
2 57173  97.5057 226.0956 0011168 128.9720 231.2516 15.28520723163504
Epoch: 2026-06-11T22:42Z
TLE epoch observation values (Epoch: 2026-06-11T22:42:14.494Z)
Latitude
-0.00002°
Longitude
-14.7473°
Altitude
488.133 km
Speed
7.618 km/s
True Right ascension
15h 04m 22s
True Declination
0° 00' 00"
Sunlit
Object was in full shadow at epoch
Visualization orbit readout
Latitude
Unknown
Longitude
Unknown
Altitude
Unknown
Speed
Unknown
Apparent Right ascension
Unknown
Apparent Declination
Unknown
Sunlit
N/A
Visualization observer readout
Local Sidereal Time
17:15:17
Azimuth
Unknown
Elevation
Unknown
Doppler factor
Unknown
Orbital elements
Apogee altitude
484.848 km
Perigee altitude
469.536 km
Semi-major axis
6,855.329 km
Eccentricity
0.00112
Inclination
97.5057°
RAAN
226.0956°
Arg. of periapsis
128.972°
True anomaly
231.15188°
Mean anomaly
231.2516°
Eccentric anomaly
231.20173°
Mean motion
3.82385 °/min
Orbital period
94.15 mins
BSTAR
0.00038114
Loading maneuver chart data...
Computing Atmospheric mass density...
Loading historical data...
Loading historical data...
Loading historical data...
Loading historical data...
Loading historical data...
Loading historical data...
Loading historical data...

Documentation

Showing up to 5 results
|